Weather in Xinyang

China     32°07′04″N   114°05′13″E
temp.,
°C
wind,
m/s
gust,
m/s
humid.,
%
clouds,
%
prec.,
mm/h
press.,
hPa
HPBL,
m
28 february, sun
sun2823:00+5nnw019149 0.0 102222
02:00+6ne008970 0.0 102058
05:00+6n119599 0.9 101990
08:00+6ene119899 4.4 1020102
11:00+6n0096100 3.1 1018109
14:00+7w1196100 4.2 1017110
17:00+7ene1296100 0.9 1015144
20:00+7nne1298100 2.0 1016114
1 march, mon
mon123:00+7nw2398100 3.8 1018147
02:00+8n2598100 5.4 1018286
05:00+8n41195100 0.3 1019578
08:00+8n61195100 0.5 1022615
11:00+7n71190100 1.2 1025779
14:00+8n71182100 1.6 1025977
17:00+8n71077100 0.1 1027959
20:00+6nne488393 0.1 1029507
2 march, tue
tue223:00+4nne368955 0.0 1030296
02:00+3nne249078 0.0 1030142
05:00+1nne229223 0.0 102948
08:00+2nne128713 0.0 1029144
11:00+7ne236576 0.0 1030496
14:00+11ene455239 0.0 1027951
17:00+11e565689 0.0 1025991
20:00+9ene257494 0.0 1026179
3 march, wed
wed323:00+8ne1278100 0.0 102741
02:00+7n1182100 0.0 102527
05:00+6n018398 0.0 102422
08:00+7ene007893 0.0 102441
11:00+12ssw1257100 0.0 1024570
14:00+15ssw1246100 0.0 10201268
17:00+15ssw234667 0.0 10191551
20:00+11ssw467482 0.0 1020160
4 march, thu
thu423:00+9ssw367998 0.0 1021171
02:00+8ssw369260 0.0 1020172
05:00+8ssw359542 0.0 1018118
08:00+9ssw479263 0.0 1019295
11:00+14ssw457019 0.0 1019581
14:00+17s225510 0.0 1016894
17:00+18sse34540 0.0 10141125
20:00+14s11720 0.0 101623